Location: El Manguito
(10.2358°N, 67.3634°W)
Time: 23:53:53
(UTC+00:00)

Aurora 2 Rocket - Pass Details

Date: 20 December 2025
Orbit: 385 x 1540 km, 25.0° (Epoch: 20 January)

Event Time Altitude Azimuth Distance (km) Brightness Sun altitude
Exits shadow 07:44:50 19° 41° (NE) 2,598 5.8 -41.1°
Drops below altitude 10° 07:46:47 10° 50° (NE) 3,086 6.3 -40.7°
Sets 07:49:33 0° 58° (ENE) 3,877 7.0 -40.1°
